Stations météo

Publicité
Bournemouth Airport, Grande-Bretagne (3862): Température de l'air & dewpoint: 05.12.2019 11:00:00 - 11.12.2019 11:00:00 (GMT)Bournemouth Airport, Grande-Bretagne (3862): Température de l'air -20cm & Température de l'air -100cm: 05.12.2019 11:00:00 - 11.12.2019 11:00:00 (GMT)Bournemouth Airport, Grande-Bretagne (3862): Vitesse du vent & gusts: 05.12.2019 11:00:00 - 11.12.2019 11:00:00 (GMT)Bournemouth Airport, Grande-Bretagne (3862): Direction du vent: 05.12.2019 11:00:00 - 11.12.2019 11:00:00 (GMT)Bournemouth Airport, Grande-Bretagne (3862): reduced air pressure: 05.12.2019 11:00:00 - 11.12.2019 11:00:00 (GMT)Bournemouth Airport, Grande-Bretagne (3862): visibility: 05.12.2019 11:00:00 - 11.12.2019 11:00:00 (GMT)Bournemouth Airport, Grande-Bretagne (3862): Ensoleillement: 05.12.2019 11:00:00 - 11.12.2019 11:00:00 (GMT)Bournemouth Airport, Grande-Bretagne (3862): Quantités de précipitations: 05.12.2019 11:00:00 - 11.12.2019 11:00:00 (GMT)
Date & Time tt [°C] td [°C] tt -20cm [°C] tt -100cm [°C] ff [km/h] ff [knt] fx [km/h] fx [knt] dd ppp [hPa] vv [km] sd [min] rr [mm]
11.12.2019 11:00:00 8,2 4,6 - - 18 10 - - SW 1004,9 10 6 0,0
11.12.2019 10:00:00 7,0 5,3 - - 11 6 - - WSW 1006,2 10 0 0,2
11.12.2019 09:00:00 4,2 4,1 7,7 8,7 8 4 - - S 1006,8 10 0 0,0
11.12.2019 08:00:00 1,9 1,4 - - 2 1 - - - 1007,2 10 0 0,0
11.12.2019 07:00:00 2,1 1,1 - - 4 2 - - S 1007,9 18 0 0,0
11.12.2019 06:00:00 2,6 0,8 - - 8 4 - - WSW 1008,4 17 0 0,0
11.12.2019 05:00:00 4,2 3,4 - - 5 3 - - WSW 1009,0 19 0 0,0
11.12.2019 04:00:00 3,0 1,9 - - 11 6 - - WSW 1009,7 16 0 0,0
11.12.2019 03:00:00 4,3 2,4 - - 13 7 - - WSW 1009,9 16 0 0,0
11.12.2019 02:00:00 5,5 3,2 - - 13 7 - - WSW 1009,9 17 0 0,0
11.12.2019 01:00:00 5,8 3,2 - - 11 6 - - WSW 1010,0 17 0 0,0
11.12.2019 00:00:00 7,0 4,0 - - 16 9 - - WSW 1009,8 21 - 0,0
10.12.2019 23:00:00 6,7 4,1 - - 9 5 - - W 1009,6 30 0 0,0
10.12.2019 22:00:00 8,3 5,9 - - 21 11 - - W 1008,9 35 0 0,0
10.12.2019 21:00:00 8,5 6,5 - - 21 11 - - W 1008,0 10 0 0,0
10.12.2019 20:00:00 9,2 7,3 - - 24 13 59 32 W 1007,0 10 0 1,0
10.12.2019 19:00:00 12,5 11,6 - - 41 22 67 36 SW 1005,2 6 0 0,8
10.12.2019 18:00:00 12,1 11,4 - - 39 21 67 36 SSW 1005,1 3,5 0 0,8
10.12.2019 17:00:00 11,9 11,3 - - 39 21 63 34 SSW 1005,9 4,0 0 0,6
10.12.2019 16:00:00 11,2 10,6 - - 39 21 70 38 SSW 1007,3 1,6 0 0,6
10.12.2019 15:00:00 10,9 10,4 - - 37 20 68 37 SSW 1008,5 2,5 0 0,6
10.12.2019 14:00:00 10,8 9,9 - - 35 19 59 32 SSW 1010,2 3,0 0 0,2
10.12.2019 13:00:00 10,6 9,7 - - 31 17 61 33 SSW 1011,7 3,0 0 0,2
10.12.2019 12:00:00 10,3 9,4 - - 34 18 59 32 SSW 1013,1 2,5 0 0,4
10.12.2019 11:00:00 9,9 8,9 - - 31 17 57 31 SSW 1015,3 2,5 0 0,8
10.12.2019 10:00:00 10,1 8,8 - - 29 16 50 27 SSW 1016,6 7 0 1,0
10.12.2019 09:00:00 10,3 7,9 7,2 8,7 31 17 50 27 SSW 1017,9 9 0 0,0
10.12.2019 08:00:00 10,5 6,6 - - 29 16 48 26 SSW 1018,7 10 0 0,0
10.12.2019 07:00:00 10,1 6,0 - - 26 14 - - SW 1019,8 10 0 0,0
10.12.2019 06:00:00 9,8 6,3 - - 24 13 - - SSW 1020,3 18 0 0,0
10.12.2019 05:00:00 8,8 5,5 - - 15 8 - - SSW 1022,0 21 0 0,2
10.12.2019 04:00:00 3,7 3,5 - - 9 5 - - S 1023,0 14 0 0,0
10.12.2019 03:00:00 -1,3 -1,6 - - 4 2 - - SSE 1024,1 7 0 0,0
10.12.2019 02:00:00 -2,0 -2,4 - - 2 1 - - NE 1024,8 6 0 0,0
10.12.2019 01:00:00 -1,6 -2,2 - - 2 1 - - E 1025,4 7 0 0,0
10.12.2019 00:00:00 -1,4 -2,0 - - 4 2 - - E 1025,9 6 - 0,0
09.12.2019 23:00:00 -0,7 -1,4 - - 4 2 - - SE 1026,0 9 0 0,0
09.12.2019 22:00:00 -0,2 -1,4 - - 2 1 - - SW 1026,1 9 0 0,0
09.12.2019 21:00:00 1,0 -1,0 - - 4 2 - - W 1025,9 17 0 0,0
09.12.2019 20:00:00 1,4 -0,2 - - 8 4 - - WNW 1025,4 10 0 0,0
09.12.2019 19:00:00 3,0 0,3 - - 11 6 - - WNW 1024,6 10 0 0,0
09.12.2019 18:00:00 2,7 0,1 - - 13 7 - - W 1023,6 10 0 0,0
09.12.2019 17:00:00 5,0 1,9 - - 13 7 - - WNW 1022,6 10 0 0,0
09.12.2019 16:00:00 8,2 1,9 - - 15 8 - - NW 1021,3 28 18 0,0
09.12.2019 15:00:00 9,5 2,1 - - 22 12 48 26 NW 1019,8 29 54 0,0
09.12.2019 14:00:00 10,0 2,5 - - 29 16 48 26 NW 1018,4 29 60 0,0
09.12.2019 13:00:00 9,3 2,4 - - 22 12 52 28 NNW 1016,9 35 42 0,0
09.12.2019 12:00:00 10,3 4,1 - - 29 16 52 28 NW 1015,6 10 54 0,0
09.12.2019 11:00:00 10,0 3,9 - - 26 14 - - NW 1014,0 29 54 0,0
09.12.2019 10:00:00 9,2 4,2 - - 29 16 48 26 NW 1012,2 35 48 0,0
09.12.2019 09:00:00 8,5 4,1 8,0 8,7 31 17 50 27 NW 1009,4 10 0 0,0
09.12.2019 08:00:00 8,9 4,0 - - 26 14 54 29 NW 1006,8 10 0 0,0
09.12.2019 07:00:00 8,9 4,5 - - 37 20 59 32 WNW 1003,9 10 0 0,0
09.12.2019 06:00:00 9,2 5,0 - - 39 21 65 35 NW 1001,3 40 0 0,0
09.12.2019 05:00:00 9,2 5,9 - - 46 25 85 46 WNW 998,2 30 0 0,2
09.12.2019 04:00:00 9,3 5,7 - - 41 22 65 35 WNW 996,4 22 0 0,0
09.12.2019 03:00:00 8,4 5,4 - - 31 17 54 29 W 996,2 25 0 0,2
09.12.2019 02:00:00 8,2 4,8 - - 28 15 48 26 W 995,9 30 0 0,4
09.12.2019 01:00:00 8,4 5,1 - - 31 17 63 34 WNW 995,8 12 0 0,0
09.12.2019 00:00:00 8,9 5,6 - - 37 20 65 35 W 994,5 24 - 0,2
08.12.2019 23:00:00 8,5 6,2 - - 35 19 63 34 WSW 993,8 8 0 1,2
08.12.2019 22:00:00 8,6 5,1 - - 18 10 48 26 SW 995,3 4,7 0 0,0
08.12.2019 21:00:00 7,9 4,1 - - 29 16 - - WSW 997,6 10 0 0,0
08.12.2019 20:00:00 7,4 3,3 - - 26 14 - - WSW 999,1 10 0 0,0
08.12.2019 19:00:00 6,8 3,7 - - 24 13 68 37 W 1000,1 10 0 0,0
08.12.2019 18:00:00 8,3 3,2 - - 39 21 72 39 W 1001,0 10 0 0,0
08.12.2019 17:00:00 7,4 3,5 - - 24 13 46 25 WSW 1000,8 10 0 0,0
08.12.2019 16:00:00 7,6 4,0 - - 34 18 52 28 W 1001,7 35 12 0,0
08.12.2019 15:00:00 7,8 4,5 - - 21 11 85 46 WSW 1001,8 10 24 0,6
08.12.2019 14:00:00 10,3 5,0 - - 34 18 59 32 WSW 1002,0 30 0 0,0
08.12.2019 13:00:00 11,1 5,5 - - 31 17 55 30 WSW 1002,6 10 24 0,0
08.12.2019 12:00:00 11,3 5,3 - - 31 17 55 30 WSW 1003,7 10 54 0,0
08.12.2019 11:00:00 10,5 4,4 - - 41 22 61 33 W 1004,1 25 42 0,0
08.12.2019 10:00:00 10,5 5,7 - - 28 15 50 27 WSW 1004,5 10 24 0,0
08.12.2019 09:00:00 9,4 5,3 8,0 8,5 29 16 52 28 W 1004,1 10 0 0,0
08.12.2019 08:00:00 9,4 5,2 - - 26 14 - - W 1003,6 10 0 0,0
08.12.2019 07:00:00 9,8 6,5 - - 28 15 - - W 1003,1 15 0 0,0
08.12.2019 06:00:00 10,3 7,0 - - 31 17 52 28 W 1002,6 20 0 0,0
08.12.2019 05:00:00 11,8 10,1 - - 29 16 57 31 W 1001,9 50 0 0,2
08.12.2019 04:00:00 12,8 11,9 - - 35 19 59 32 WSW 1001,7 6 0 0,0
08.12.2019 03:00:00 11,9 11,2 - - 31 17 59 32 SW 1002,8 10 0 2,8
08.12.2019 02:00:00 11,2 10,5 - - 31 17 55 30 SW 1004,2 3,7 0 2,8
08.12.2019 01:00:00 11,1 9,9 - - 29 16 54 29 SW 1005,1 7 0 0,6
08.12.2019 00:00:00 11,6 8,9 - - 29 16 52 28 SW 1006,8 16 - 0,0
07.12.2019 23:00:00 11,5 8,8 - - 24 13 46 25 SSW 1008,6 21 0 0,0
07.12.2019 22:00:00 11,0 9,1 - - 24 13 46 25 SW 1010,3 15 0 0,0
07.12.2019 21:00:00 11,3 8,9 - - 24 13 - - SW 1011,0 10 0 0,0
07.12.2019 20:00:00 11,2 8,7 - - 13 7 - - SW 1011,9 10 0 0,0
07.12.2019 19:00:00 11,0 7,7 - - 15 8 - - SW 1012,8 40 0 0,0
07.12.2019 18:00:00 10,9 8,5 - - 16 9 - - SW 1013,5 10 0 0,0
07.12.2019 17:00:00 10,6 7,9 - - 16 9 - - SW 1013,7 50 0 0,0
07.12.2019 16:00:00 10,7 8,0 - - 11 6 - - SW 1014,2 35 0 0,0
07.12.2019 15:00:00 10,8 7,3 - - 18 10 - - WSW 1014,5 10 0 0,0
07.12.2019 14:00:00 10,9 7,1 - - 16 9 - - WSW 1014,6 60 0 0,0
07.12.2019 13:00:00 11,4 6,7 - - 21 11 - - W 1015,1 40 30 0,0
07.12.2019 12:00:00 11,0 7,5 - - 16 9 - - WSW 1015,4 10 36 0,0
07.12.2019 11:00:00 10,9 7,2 - - 16 9 - - WSW 1015,5 10 36 0,0
07.12.2019 10:00:00 9,7 6,9 - - 9 5 - - W 1015,7 35 0 0,0
07.12.2019 09:00:00 8,6 6,9 7,5 8,2 13 7 - - WSW 1015,8 10 0 0,0
07.12.2019 08:00:00 7,2 5,7 - - 9 5 - - W 1016,0 10 0 0,0
07.12.2019 07:00:00 7,0 5,4 - - 9 5 - - WSW 1014,8 9 0 0,0
07.12.2019 06:00:00 8,0 6,4 - - 13 7 - - WSW 1014,4 26 0 0,0
07.12.2019 05:00:00 7,7 6,3 - - 5 3 - - SW 1014,0 25 0 0,0
07.12.2019 04:00:00 7,8 6,5 - - 8 4 - - WSW 1013,6 26 0 0,0
07.12.2019 03:00:00 7,7 6,4 - - 8 4 - - WSW 1013,3 28 0 0,0
07.12.2019 02:00:00 7,3 6,0 - - 8 4 - - SW 1012,6 24 0 0,0
07.12.2019 01:00:00 7,0 5,7 - - 13 7 - - W 1011,9 22 0 0,0
07.12.2019 00:00:00 9,5 7,5 - - 16 9 52 28 W 1011,9 9 - 0,0
06.12.2019 23:00:00 9,2 6,8 - - 15 8 - - W 1011,6 28 0 0,0
06.12.2019 22:00:00 8,2 6,0 - - 13 7 - - WSW 1010,9 10 0 0,0
06.12.2019 21:00:00 9,4 6,5 - - 9 5 - - W 1009,9 10 0 0,0
06.12.2019 20:00:00 9,5 6,4 - - 16 9 - - W 1009,2 29 0 0,0
06.12.2019 19:00:00 10,3 6,6 - - 13 7 - - W 1008,2 10 0 0,0
06.12.2019 18:00:00 10,4 7,6 - - 22 12 - - W 1006,9 10 0 0,0
06.12.2019 17:00:00 10,2 8,0 - - 22 12 - - W 1005,7 10 0 0,0
06.12.2019 16:00:00 11,3 9,4 - - 29 16 50 27 W 1005,0 10 0 0,2
06.12.2019 15:00:00 12,4 10,2 - - 28 15 61 33 W 1004,1 10 6 0,0
06.12.2019 14:00:00 13,0 11,4 - - 31 17 54 29 WSW 1004,4 10 6 0,0
06.12.2019 13:00:00 12,6 11,7 - - 28 15 54 29 WSW 1005,1 10 6 0,2
06.12.2019 12:00:00 13,0 11,7 - - 34 18 54 29 WSW 1006,0 9 0 0,0
06.12.2019 11:00:00 12,6 11,7 - - 34 18 57 31 WSW 1006,9 6 0 0,0
06.12.2019 10:00:00 12,8 11,5 - - 37 20 59 32 WSW 1007,2 10 0 0,0
06.12.2019 09:00:00 12,4 11,5 6,5 8,2 34 18 59 32 WSW 1007,6 6 0 0,0
06.12.2019 08:00:00 12,4 11,3 - - 41 22 55 30 WSW 1008,0 8 0 0,2
06.12.2019 07:00:00 12,2 11,2 - - 29 16 55 30 WSW 1008,6 8 0 0,2
06.12.2019 06:00:00 11,9 11,2 - - 26 14 48 26 SW 1009,1 2,3 0 0,0
06.12.2019 05:00:00 11,8 11,2 - - 26 14 50 27 WSW 1009,9 6 0 0,0
06.12.2019 04:00:00 11,6 10,8 - - 28 15 46 25 WSW 1010,3 3,7 0 0,0
06.12.2019 03:00:00 11,5 10,8 - - 28 15 50 27 WSW 1011,1 2,6 0 0,0
06.12.2019 02:00:00 11,3 10,6 - - 26 14 54 29 WSW 1012,0 8 0 0,2
06.12.2019 01:00:00 11,2 10,3 - - 28 15 52 28 WSW 1012,7 8 0 0,2
06.12.2019 00:00:00 10,8 10,0 - - 22 12 - - WSW 1013,7 9 - 0,0
05.12.2019 23:00:00 10,5 9,7 - - 18 10 - - WSW 1014,7 4,2 0 0,2
05.12.2019 22:00:00 10,6 9,0 - - 26 14 - - WSW 1015,6 3,9 0 0,0
05.12.2019 21:00:00 10,8 8,0 - - 28 15 46 25 WSW 1016,1 10 0 0,0
05.12.2019 20:00:00 10,7 7,3 - - 22 12 - - WSW 1016,7 10 0 0,0
05.12.2019 19:00:00 10,7 6,8 - - 26 14 - - WSW 1016,9 28 0 0,0
05.12.2019 18:00:00 10,6 6,6 - - 21 11 - - WSW 1017,3 10 0 0,0
05.12.2019 17:00:00 10,5 7,1 - - 22 12 - - WSW 1017,8 30 0 0,0
05.12.2019 16:00:00 10,2 7,1 - - 18 10 - - WSW 1018,0 10 0 0,0
05.12.2019 15:00:00 9,9 7,4 - - 11 6 - - WSW 1018,7 10 0 0,0
05.12.2019 14:00:00 10,1 7,8 - - 15 8 - - WSW 1019,5 30 0 0,0
05.12.2019 13:00:00 10,2 7,7 - - 15 8 - - WSW 1020,4 10 0 0,0
05.12.2019 12:00:00 8,6 7,0 - - 4 2 - - SW 1021,1 12 36 0,0
05.12.2019 11:00:00 4,3 3,8 - - 0 0 - - N 1022,1 9 0 0,0

tt = Température de l'air
td = dewpoint
tt -20cm = Température de l'air -20cm
tt -100cm = Température de l'air -100cm
ff = Vitesse du vent
fx = gusts
dd = Direction du vent
ppp = reduced air pressure
vv = visibility
sd = Ensoleillement
rr = Quantités de précipitations

stations d'obs. à proximité